Regional Weather Roundup
Issued by NWS Newport/Morehead, NC

Current Version | Previous Version | Text Only | Print | Product List | Glossary Off
Versions: 1 2 3 4 5 6 7 8 9 10 11 12 13 14 15 16 17 18 19 20 21 22 23 24 25 26 27 28 29 30 31 32 33 34 35 36 37 38 39 40 41 42 43 44 45 46 47 48 49 50

000
ASUS42 KMHX 272222
RWRMHX
WEATHER ROUNDUP FOR EASTERN NORTH CAROLINA
NATIONAL WEATHER SERVICE NEWPORT/MOREHEAD CITY NC
500 PM EST THU NOV 27 2014

NOTE: "FAIR" INDICATES FEW OR NO CLOUDS BELOW 12,000 FEET
WITH NO SIGNIFICANT WEATHER AND/OR OBSTRUCTIONS TO VISIBILITY

NCZ015>017-031-032-045>047-102-103-272300-
NORTH COAST

CITY           SKY/WX    TMP DP  RH WIND       PRES   REMARKS
EDENTON        PTCLDY    43  38  84 NW5       30.08R
ELIZABETH CITY CLOUDY    45  38  76 NW8       30.06R
KITTY HAWK     PTCLDY    44  39  83 NW9G21    30.02R
MANTEO         CLOUDY    45  40  84 NW12G22   30.05R

$$

NCZ045>047-081-094-103-104-272300-
CENTRAL COAST

CITY           SKY/WX    TMP DP  RH WIND       PRES   REMARKS
FRISCO         CLOUDY    49  43  80 N12G25    30.00R
SWANQUARTER      N/A     45 N/A N/A NW7G14    30.03R

$$

NCZ095-097-098-100-101-272300-
SOUTHERN COAST

CITY           SKY/WX    TMP DP  RH WIND       PRES   REMARKS
BEAUFORT       MOCLDY    48  42  80 N17       30.06R
CEDAR ISLAND     N/A     48 N/A N/A W21G28    30.09R
JACKSONVILLE   PTCLDY    47  39  74 NW15      30.09R
PINEY ISLAND   MOCLDY    50  40  68 NW16G25   30.07R
WILMINGTON     CLEAR     48  39  71 NW12      30.11R


$$

NCZ011>013-027>030-043-044-078>080-089-090>093-098-272300-
COASTAL PLAIN

CITY           SKY/WX    TMP DP  RH WIND       PRES   REMARKS
AHOSKIE        MOCLDY    41  40  94 CALM      30.09R
CLINTON        CLEAR     46  38  73 NW6       30.13R
ELIZABETHTOWN  CLEAR     47  37  67 NW3       30.14R
GOLDSBORO      CLEAR     46  41  83 NW9       30.09R
GREENVILLE     PTCLDY    45  37  76 NW5       30.11R
HAVELOCK       MOCLDY    48  39  71 NW22G28   30.08R
KENANSVILLE    CLEAR     45  37  72 NW7       30.13R
KINSTON        PTCLDY    45  39  81 NW7       30.11R
NEW BERN       PTCLDY    47  37  68 NW14G20   30.09R
RICHLANDS      PTCLDY    45  36  70 NW5       30.12R
ROCKY MOUNT    CLEAR     44  37  76 W6        30.10R
WASHINGTON     PTCLDY    43  38  83 NW3       30.10R
WHITEVILLE     NOT AVBL

$$

AMZ130-135-150-152-154-156-158-170-250-252-270-ANZ085-086-088-633-658-670-272300-
MARINE OBSERVATIONS

STATION/POSITION TIME  TEMP    WIND        PRES    WAVE   SWELL
                       AIR SEA DIR/SP/G            HT/PER HT/PER
                 (UTC) (F)     (DEG/KT/KT) (MB)    (FT/S) (FT/S)
CHESAPEAKE LIGHT 2200   44     350/ 22/ 25 1017.8
64 E VA BEACH    2200   49 62  320/ 21/ 25 1015.3    4/ 9   3/ 9
DUCK             2200   44 54  330/ 16/ 20 1016.1
2 E DUCK         2200      56                N/A     4/ 8   2/11
10 NE DUCK       2200      58                N/A     4/ 9   2/14
OREGON INLET     2200   47 56  330/ 11/ 15 1016.4
13E OREGON INLT  2200      60                N/A     5/ 9   2/11
HATTERAS CG      2200   51 59  340/ 22/ 25 1016.6
DIAMOND BUOY     2200   55     330/ 19/ 23 1014.7    5/10   3/10
17 S OCRACOKE    NOT AVBL
CAPE LOOKOUT     2200   50     330/ 18/ 24 1017.4
BEAUFORT LAB     2200   49 57  340/ 11/ 18 1017.0
30 SE NEW RIVER  2200   54 66  320/ 25/ 31 1017.5    6/ 7   2/14
5 SE WRIGHTSVLE  2200   48 59  320/ 21/ 27 1019.0
225 S CAPE HAT   2108   66 73  280/ 27/ 35 1015.6   10/ 7   2/14
41 SE CHARLESTON 2200   56 72  320/ 19/ 27 1020.0    7/ 7   2/ 9

$$


USA.gov is the U.S. government's official web portal to all federal, state and local government web resources and services.